Miscellaneous Local Product
Issued by NWS North Platte, NE

Home | Current Version | Previous Version | Text Only | Print | Product List | Glossary On
Versions: 1 2 3 4 5 6 7 8 9 10 11 12 13 14 15 16 17 18 19 20 21 22 23 24 25 26 27 28 29 30 31 32 33 34 35 36 37 38 39 40 41 42 43 44 45 46 47 48 49 50
000
AXUS43 KLBF 310410
MISLBF


WESTERN AND NORTH CENTRAL NEBRASKA HOURLY WEATHER ROUNDUP
NATIONAL WEATHER SERVICE NORTH PLATTE NE
1100 PM CDT MON MAR 30 2015

***STATIONS NOT REPORTING VARIABLES SUCH AS SKY/WEATHER OR
PRESSURE ARE PROVIDED BY THE NEBRASKA DEPARTMENT OF
ROADS...RAWS...AND APRS NETWORKS...AND ARE NOT UNDER
NATIONAL WEATHER SERVICE QUALITY CONTROL***

...OBSERVATIONS IN AND NEAR THE EASTERN PANHANDLE OF NEBRASKA...

CITY           SKY/WX    TMP DP  RH WIND       PRES   REMARKS
PINE RIDGE     CLEAR     41  28  60 E7        30.05S
CHADRON        CLEAR     50  29  44 N3        30.05R
ALLIANCE       CLEAR     37  25  61 SW5       30.06R WCI  33
SIDNEY         CLEAR     40  26  57 CALM      30.09S
WHITECLAY        N/A     41  25  54 S3          N/A
CRESCENT LAKE    N/A     50  23  34 S3          N/A
BIG SPRINGS      N/A     48  22  36 SE3         N/A
$$

...OBSERVATIONS IN NORTH CENTRAL NEBRASKA...

CITY           SKY/WX    TMP DP  RH WIND       PRES   REMARKS
VALENTINE      CLEAR     44  26  49 NW5       30.02S
THEDFORD       CLEAR     49  26  41 CALM      30.04S
AINSWORTH      CLEAR     47  26  43 NW3       30.02R
O`NEILL        CLEAR     52  28  39 NW6       30.00S
ORD            CLEAR     51  27  39 NW7       29.99S
BROKEN BOW     CLEAR     47  26  44 N5        30.01S
BROWNLEE         N/A     56  27  32 CALM        N/A
SPRINGVIEW       N/A     45  29  52 CALM        N/A
BREWSTER         N/A     50  28  42 CALM        N/A
ROSE             N/A     58  30  34 W3          N/A
NEWPORT          N/A     49  28  43 NW5         N/A
SARGENT          N/A     48  29  48 CALM        N/A
COMSTOCK         N/A     53  28  38 CALM        N/A
EWING            N/A     54  31  42 CALM        N/A
$$

...OBSERVATIONS IN SOUTHWEST NEBRASKA AND FAR NORTHEAST COLORADO...

CITY           SKY/WX    TMP DP  RH WIND       PRES   REMARKS
WRAY           FAIR      56  21  25 E3        30.06S
IMPERIAL         N/A     48  20  32 NE8       30.04S
OGALLALA       CLEAR     45  25  45 CALM      30.06R
NORTH PLATTE   CLEAR     44  25  47 SE5       30.02F
MCCOOK         CLEAR     52  21  29 NE7       30.03R
LEXINGTON      CLEAR     45  25  44 CALM      30.02F
PAXTON           N/A     51  24  34 CALM        N/A
SUTHERLAND       N/A     49  17  27 CALM        N/A
BRADY            N/A     49  27  42 CALM        N/A
GOTHENBURG       N/A     56  23  27 CALM        N/A
CALLAWAY         N/A     56  29  35 N6          N/A
$$

...NORTH PLATTE AREA...

CITY           SKY/WX    TMP DP  RH WIND       PRES   REMARKS
AIRPORT        CLEAR     44  25  47 SE5       30.02F
DOWNTOWN         N/A     53  28  38 CALM        N/A
$$

...SOME WEATHER OBSERVATIONS FROM AROUND THE REGION...

CITY           SKY/WX    TMP DP  RH WIND       PRES   REMARKS
DENVER         PTCLDY    53  24  32 E6        30.13R
LARAMIE        PTCLDY    38  14  37 W9        30.20R WCI  31
CHEYENNE       PTCLDY    45  21  38 SW5       30.15S
SCOTTSBLUFF    CLEAR     47  26  44 CALM      30.07R
RAPID CITY     CLEAR     41  27  57 NW6       30.03F
PIERRE         CLEAR     44  25  47 CALM      29.97S
WINNER         FAIR      57  26  30 W3        30.00S
SIOUX FALLS    CLEAR     56  32  40 N16       29.95R
OMAHA          PTCLDY    57  32  38 CALM      29.92R
GRAND ISLAND   CLEAR     54  26  34 N5        30.00R
KANSAS CITY    CLEAR     59  34  39 SW13      29.94F
WICHITA        MOCLDY    61  38  42 S9        29.95S
HAYS           CLEAR     63  25  23 NE12      29.97F
LIBERAL        PTCLDY    55  30  38 N6        30.01S
GOODLAND       CLEAR     51  19  28 CALM      30.06R
$$



USA.gov is the U.S. government's official web portal to all federal, state and local government web resources and services.